TimeCDT,TemperatureF,Dew PointF,Humidity,Sea Level PressureIn,VisibilityMPH,Wind Direction,Wind SpeedMPH,Gust SpeedMPH,PrecipitationIn,Events,Conditions,WindDirDegrees,DateUTC
12:53 AM,55.0,46.9,74,30.07,10.0,WNW,4.6,-,N/A,,Overcast,290,2014-06-07 05:53:00
1:53 AM,55.0,46.9,74,30.07,10.0,West,4.6,-,N/A,,Overcast,270,2014-06-07 06:53:00
2:53 AM,54.0,48.0,80,30.07,10.0,WNW,3.5,-,N/A,,Overcast,290,2014-06-07 07:53:00
3:53 AM,53.6,48.2,82,30.08,10.0,Calm,Calm,-,N/A,,Overcast,0,2014-06-07 08:53:00
4:53 AM,53.1,46.9,80,30.10,10.0,WNW,3.5,-,N/A,,Overcast,290,2014-06-07 09:53:00
5:53 AM,53.1,46.9,80,30.10,10.0,Calm,Calm,-,N/A,,Mostly Cloudy,0,2014-06-07 10:53:00
6:53 AM,54.0,48.0,80,30.11,10.0,Calm,Calm,-,N/A,,Scattered Clouds,0,2014-06-07 11:53:00
7:53 AM,57.9,46.0,65,30.11,10.0,WNW,3.5,-,N/A,,Mostly Cloudy,300,2014-06-07 12:53:00
8:53 AM,62.1,46.0,56,30.11,10.0,Calm,Calm,-,N/A,,Scattered Clouds,0,2014-06-07 13:53:00
9:53 AM,64.4,44.6,49,30.10,10.0,NW,6.9,-,N/A,,Scattered Clouds,320,2014-06-07 14:53:00
10:53 AM,66.9,39.0,36,30.09,10.0,NNW,8.1,20.7,N/A,,Scattered Clouds,330,2014-06-07 15:53:00
11:53 AM,66.9,35.1,31,30.08,10.0,NW,11.5,19.6,N/A,,Scattered Clouds,310,2014-06-07 16:53:00
12:53 PM,68.0,33.1,27,30.07,10.0,WNW,8.1,17.3,N/A,,Scattered Clouds,300,2014-06-07 17:53:00
1:53 PM,70.0,36.0,29,30.06,10.0,NW,9.2,-,N/A,,Mostly Cloudy,310,2014-06-07 18:53:00
2:53 PM,70.0,37.0,30,30.06,10.0,WNW,15.0,19.6,N/A,,Mostly Cloudy,300,2014-06-07 19:53:00
3:53 PM,71.1,37.9,30,30.05,10.0,WNW,10.4,16.1,N/A,,Scattered Clouds,290,2014-06-07 20:53:00
4:53 PM,69.1,37.9,32,30.05,10.0,NW,10.4,-,N/A,,Mostly Cloudy,310,2014-06-07 21:53:00
5:53 PM,68.0,37.9,33,30.05,10.0,NW,6.9,-,N/A,,Mostly Cloudy,310,2014-06-07 22:53:00
6:53 PM,69.1,39.9,35,30.04,10.0,NNW,9.2,-,N/A,,Scattered Clouds,330,2014-06-07 23:53:00
7:53 PM,66.9,43.0,42,30.05,10.0,NW,4.6,-,N/A,,Partly Cloudy,310,2014-06-08 00:53:00
8:53 PM,63.0,46.0,54,30.06,10.0,NW,4.6,-,N/A,,Partly Cloudy,320,2014-06-08 01:53:00
9:53 PM,55.9,46.9,72,30.07,10.0,NNW,4.6,-,N/A,,Partly Cloudy,340,2014-06-08 02:53:00
10:53 PM,55.0,44.1,67,30.08,10.0,Calm,Calm,-,N/A,,Clear,0,2014-06-08 03:53:00
11:53 PM,52.0,43.0,71,30.09,10.0,Calm,Calm,-,N/A,,Clear,0,2014-06-08 04:53:00